www.pogodaiklimat.ru

Погода и климат >> Архив погоды >> Филиппины >> Диполог


ПОГОДА в Дипологе

  • Прогноз погоды в Дипологе
  • Монитор погоды в Дипологе

АРХИВ ПОГОДЫ в Дипологе

Время (UTC), дата Ветер
(напр.,м/с)
 
Видим.   Явления Облачность Т
(С)
Тd
(С)
f
(%)
Тe
(С)
Тes
(С)
Комфортность P
(гПа)
Po
(гПа)
Тmin
(С)
Tmax
(С)
R
(мм)
R24
(мм)
S
(см)
12 12.08 З 2 16 км {туман} 4/3 540 м
[Cu med, cong Ci fib]
+29.2 +24.7 77 +42 +42 опасность
перегрева
1009.9 1009.5 +33.8
15 12.08 Ю 1 18 км 4/3 540 м
[Cu med, cong Ci fib]
+27.0 +24.6 87 +38 +38 очень
душно
1011.4 1011.0
18 12.08 Ю 1 18 км 3/3 540 м
[Cu med, cong Ci fib]
+25.6 +23.7 89 +35 +35 очень
душно
1010.0 1009.6
21 12.08 Ю 1 18 км 3/3 540 м
[Cu med, cong Ci fib]
+24.6 +22.7 89 +32 +32 очень
душно
1009.7 1009.3
00 13.08 Ю 2 18 км мгла {туман} 8/3 540 м
[Cu med, cong Cs]
+27.6 +23.6 79 +38 +42 очень
душно
1010.6 1010.2 +24.2
03 13.08 Ю 3 18 км мгла {туман} 8/3 540 м
[Cu med, cong Cs]
+33.8 +22.3 51 +43 +53 опасность
перегрева
1010.0 1009.6
06 13.08 СЗ 2 18 км мгла {туман} 6/3 540 м
[Cu med, cong Cs]
+34.2 +24.4 57 +47 +57 опасность
перегрева
1008.1 1007.7
09 13.08 З 4 12 км гроза без осадков {туман} 6/4 500 м
[Cb cap Ac As]
+31.4 +25.4 71 +46 +46 опасность
перегрева
1008.8 1008.4
12 13.08 Ю 1 14 км {гроза, туман} 6/1 540 м
[Cu hum Cs]
+26.8 +23.2 81 +36 +36 очень
душно
1011.3 1010.9 +35.0
15 13.08 Ю 1 14 км 8/1 540 м
[Cu hum Ac trans]
+26.0 +23.4 86 +35 +35 очень
душно
1011.9 1011.5
18 13.08 ЮВ 1 14 км 6/1 540 м
[Cu hum Ac trans]
+25.4 +23.4 89 +34 +34 очень
душно
1010.4 1010.0
21 13.08 ЮВ 1 14 км 5/1 540 м
[Cu hum Cs]
+24.8 +23.0 90 +33 +33 очень
душно
1010.5 1010.1
00 14.08 Ю 2 18 км мгла {туман} 3/1 540 м
[Cu hum Ci fib]
+28.0 +24.3 80 +39 +45 очень
душно
1011.4 1011.0 +24.4
03 14.08 СЗ 3 18 км мгла {туман} 8/3 540 м
[Cu med, cong Cs]
+33.0 +23.3 57 +44 +54 опасность
перегрева
1010.3 1009.9
06 14.08 СЗ 5 18 км мгла {туман} 6/3 540 м
[Cu med, cong Cs]
+34.6 +24.8 57 +48 +53 опасность
перегрева
1008.1 1007.7
09 14.08 З 4 12 км гроза без осадков {туман} 8/3 540 м
[Cb cap Ac As]
+30.4 +25.4 75 +45 +45 опасность
перегрева
1008.8 1008.4
12 14.08 ЮВ 1 12 км в посл. час ливневой дождь {гроза} 8/3 540 м
[Cu med, cong Ac As]
+27.2 +25.1 88 +39 +39 очень
душно
1011.3 1010.9 +34.8 0.0
15 14.08 ЮВ 1 12 км 9/3 540 м
[Cu med, cong Cs]
+25.8 +24.2 91 +36 +36 очень
душно
1011.7 1011.3
18 14.08 Ю 1 12 км 6/3 540 м
[Cu med, cong Ac trans]
+25.3 +23.8 91 +34 +34 очень
душно
1010.4 1010.0
21 14.08 ЮВ 1 14 км 5/1 540 м
[Cu med, cong Ac As]
+24.8 +23.2 91 +33 +33 очень
душно
1010.6 1010.2
00 15.08 Ю 2 18 км мгла {туман} 4/3 540 м
[Cu med, cong Ac As]
+27.8 +24.4 82 +39 +44 очень
душно
1012.2 1011.8 +24.2 0.0
03 15.08 СЗ 2 18 км мгла {туман} 6/3 540 м
[Cu med, cong Cs]
+33.4 +24.4 59 +46 +59 опасность
перегрева
1011.1 1010.7
06 15.08 СЗ 3 18 км мгла {туман} 6/3 540 м
[Cu med, cong Cs]
+34.8 +25.4 58 +49 +57 опасность
перегрева
1008.6 1008.2
09 15.08 В 1 8000 м гроза, ливневой дождь 10/3 500 м
[Cb cap As op]
+25.8 +23.9 89 +35 +36 очень
душно
1009.1 1008.7 8
12 15.08 ЮВ 1 6000 м гроза, ливневой дождь 10/3 500 м
[Cb cap As op]
+25.8 +24.9 95 +37 +37 очень
душно
1011.4 1011.0 +35.0 17
15 15.08 В 1 9000 м {гроза, дождь} 9/3 540 м
[Cu med, cong Ac As]
+24.7 +23.8 95 +34 +34 очень
душно
1012.0 1011.6 13
18 15.08 ЮВ 1 10 км {гроза, дождь} 10/3 540 м
[Cu hum Cs]
+24.4 +23.6 95 +33 +33 очень
душно
1010.7 1010.3 13
21 15.08 В 1 12 км 9/3 540 м
[Cu hum Cs]
+24.4 +23.3 94 +33 +33 очень
душно
1010.7 1010.3
00 16.08 Ю 2 16 км мгла {туман} 8/1 540 м
[Cu hum Ac As Cs]
+26.8 +24.7 88 +38 +42 очень
душно
1011.7 1011.3 +23.7 30
03 16.08 З 2 16 км мгла {туман} 6/3 540 м
[Cu med, cong Ac As]
+32.4 +24.8 64 +45 +56 опасность
перегрева
1011.6 1011.2
06 16.08 С 2 14 км гроза без осадков {туман} 8/3 500 м
[Cb cap Ac As]
+31.2 +25.5 72 +46 +51 опасность
перегрева
1009.7 1009.3
09 16.08 ЮВ 1 6000 м слаб. дождь {гроза} 10/3 500 м
[Cb cap As op]
+25.4 +23.5 89 +34 +35 очень
душно
1010.2 1009.8 35
12 16.08 ЮВ 1 12 км {гроза, ливн. осадки} 8/3 540 м
[Cu med, cong Ac As]
+24.4 +23.0 92 +32 +32 очень
душно
1011.4 1011.0 +33.3 35
15 16.08 Ю 1 12 км 9/3 540 м
[Cu med, cong Ac As]
+24.2 +23.1 94 +32 +32 очень
душно
1012.5 1012.1
18 16.08 Ю 1 12 км 9/3 540 м
[Cu med, cong Ac As]
+24.2 +23.1 94 +32 +32 очень
душно
1011.1 1010.7
21 16.08 ЮВ 1 14 км {ливн. осадки} 6/3 540 м
[Cu med, cong Ac As]
+24.0 +22.9 94 +32 +32 очень
душно
1011.1 1010.7 0.0
00 17.08 Ю 2 18 км мгла {туман} 4/1 540 м
[Cu hum Ac As]
+26.8 +24.4 87 +38 +43 очень
душно
1012.3 1011.9 +23.5 35
03 17.08 С 2 18 км мгла {туман} 4/3 540 м
[Cu med, cong Ac As]
+32.2 +25.1 66 +46 +59 опасность
перегрева
1012.4 1012.0
06 17.08 З 3 18 км мгла {туман} 3/3 500 м
[Cb cap]
+32.8 +24.6 62 +46 +55 опасность
перегрева
1009.6 1009.2
09 17.08 З 3 16 км мгла {туман} 8/3 500 м
[Cb cap Ac As]
+30.6 +24.2 69 +43 +43 опасность
перегрева
1009.9 1009.5
12 17.08 З 2 16 км {туман} 6/3 540 м
[Cu med, cong Ac As]
+28.4 +24.7 80 +40 +40 очень
душно
1010.9 1010.5 +33.0
15 17.08 Ю 1 16 км 6/3 540 м
[Cu med, cong Ac As]
+26.0 +24.1 89 +36 +36 очень
душно
1012.2 1011.8
18 17.08 Ю 1 16 км 6/3 540 м
[Cu med, cong Ac As]
+24.8 +23.2 91 +33 +33 очень
душно
1010.8 1010.4
21 17.08 ЮВ 1 12 км зарница 10/3 540 м
[Cu med, cong Ac As]
+25.0 +23.6 92 +34 +34 очень
душно
1010.9 1010.5
00 18.08 З 3 18 км мгла {туман} 8/3 540 м
[Cu med, cong Ac trans]
+27.7 +24.1 81 +39 +41 очень
душно
1012.7 1012.3 +24.4
03 18.08 З 3 16 км мгла {туман} 10/3 540 м
[Cu med, cong Ac As Cs]
+30.6 +25.4 74 +45 +51 опасность
перегрева
1012.8 1012.4
06 18.08 З 6 18 км мгла {туман} 6/3 540 м
[Cu med, cong Ac As]
+31.0 +23.8 66 +43 +46 опасность
перегрева
1009.6 1009.2
09 18.08 З 3 18 км осадки на расстоянии {туман} 5/3 500 м
[Cb cap Cs]
+29.6 +23.4 69 +40 +41 очень
душно
1008.6 1008.2
12 18.08 З 3 16 км {туман} 6/3 540 м
[Cu med, cong Ac As]
+27.0 +23.5 81 +37 +37 очень
душно
1010.7 1010.3 +31.4
15 18.08 Ю 1 16 км 5/3 540 м
[Cu med, cong Ac As]
+25.2 +23.3 89 +34 +34 очень
душно
1011.0 1010.6
18 18.08 ЮВ 1 16 км 8/3 540 м
[Cu med, cong Ac As]
+24.8 +23.2 91 +33 +33 очень
душно
1009.8 1009.4
21 18.08 ЮВ 1 16 км {ливн. осадки} 8/3 540 м
[Cu med, cong Ac As]
+24.0 +22.9 94 +32 +32 очень
душно
1009.8 1009.4 0.0
00 19.08 Ю 1 18 км мгла {туман} 4/1 500 м
[Cb cap Ci fib]
+27.0 +24.3 85 +38 +45 очень
душно
1010.6 1010.2 +23.5 0.0
03 19.08 СЗ 2 18 км мгла {туман} 4/3 500 м
[Cb cap Ci fib]
+32.3 +24.5 64 +45 +60 опасность
перегрева
1010.4 1010.0
06 19.08 З 4 18 км осадки на расстоянии {туман} 4/3 500 м
[Cb cap Ac As Ci fib]
+32.6 +25.0 64 +46 +53 опасность
перегрева
1007.5 1007.1

 

Местоположение метеостанции Диполог (Филиппины): широта 8.60 долгота 123.35 высота над уровнем моря 5 м.

В архиве по умолчанию представлена погода в Дипологе за последнюю неделю. Архивные данные за месяц целиком и за предыдущие месяцы, начиная с января 2011 года, Вы можете получить, выбрав интересующий диапазон дат из раскрывающегося списка и нажав кнопку "Ввод!".


*Определитесь, кто Вы:
робот инопланетянин человек

Внимание! Время в таблицах - всемирное. Для получения местного времени необходимо прибавить поправку, которая равна 8 ч.

Смотрите также архив погоды в соседних городах и на ближайших метеорологических станциях:

Погода в Думагете (Филиппины) (78 км)
Погода в Кагаян-де-Оро (Филиппины) (104 км)
Погода в Тагбиларане (Филиппины) (124 км)
Погода в Котобато (Филиппины) (186 км)
Погода в Малайбалае (Филиппины) (197 км)
Погода в Мактане (Филиппины) (201 км)
Погода в Маасине (Филиппины) (235 км)
Погода в Замбоанге (Филиппины) (237 км)
Погода в Бутуане (Филиппины) (240 км)
Погода в Серигао Сити (Филиппины) (271 км)

Пояснения к столбцам:

Ветер - указаны скорость ветра в м/с - средняя за 10 мин, порывы в срок и между сроками (в фигурных скобках) и направление, откуда дует ветер: С - северный, СВ - северо-восточный, В - восточный, ЮВ - юго-восточный, Ю - южный, ЮЗ - юго-западный, З - западный, СЗ - северо-западный.
Видимость - горизонтальная дальность видимости в метрах или километрах. При видимости от 1 до 10 км при отсутствии осадков обычно наблюдается дымка, при ухудшении видимости до 1 км и менее - туман. В сухую погоду видимость может ухудшаться дымом, пылью или мглою.
Явления - указаны атмосферные явления, наблюдавшиеся в срок или в последний час перед сроком; фигурными скобками обозначены явления, наблюдавшиеся между сроками (за 1-3 часа до срока); квадратными скобками обозначены град или гололедные отложения с указанием их диаметра в мм.
Облачность - указаны через наклонную черту общая и нижняя облачность в баллах и высота нижней границы облаков в метрах; квадратными скобками обозначены формы облаков: Ci - перистые, Cs - перисто-слоистые, Cc - перисто-кучевые, Ac - высококучевые, As - высокослоистые, Sc - слоисто-кучевые, Ns - слоисто-дождевые, Cu - кучевые, Cb - кучево-дождевые. Подробнее классификацию облаков см. в Атласе облаков (PDF).
T - Температура воздуха - температура, измеренная на высоте 2 м над землей.
Td - Температура точки росы - температура, при понижении до которой содержащийся в воздухе водяной пар достигнет насыщения.
f - Относительная влажность воздуха - влажноcть воздуха, измеренная на высоте 2 м над землей.
Te - Эффективная температура - температура, которую ощущает одетый по сезону человек в тени. Характеристика душности погоды. При расчете учитывается влияние влажности воздуха и скорости ветра на теплоощущения человека.
Tes - Эффективная температура на солнце - температура, которую ощущает человек, с поправкой на солнечный нагрев. Характеристика знойности погоды. Зависит от высоты солнца над горизонтом, облачности и скорости ветра. Ночью, в пасмурную погоду, а также при ветре 12 м/с и более поправка равна нулю.
P - Атмосферное давление - приведенное к уровню моря атмосферное давление.
Po - Атмосферное давление - измеренное на уровне метеостанции атмосферное давление.
Tmin - Минимальная температура - минимум температуры воздуха на высоте 2 м над землей.
Tmax - Максимальная температура - максимум температуры воздуха на высоте 2 м над землей.
R - Количество осадков - Количество выпавших осадков за период времени, мм. При наведении курсора мыши на число - период времени, за который выпало указанное количество осадков.
R24 - Количество осадков - Количество выпавших осадков за 24 часа, мм.
S - Снежный покров - Высота снежного покрова, см. При наведении курсора мыши на число - состояние снежного покрова и степень покрытия местности в баллах.